11/07/2024 08:30:00,0.783
11/07/2024 08:45:00,0.783
11/07/2024 09:00:00,0.783
11/07/2024 09:15:00,0.784
11/07/2024 09:30:00,0.785
11/07/2024 09:45:00,0.784
11/07/2024 10:00:00,0.784
11/07/2024 10:15:00,0.787
11/07/2024 10:30:00,0.785
11/07/2024 10:45:00,0.785
11/07/2024 11:00:00,0.785
11/07/2024 11:15:00,0.785
11/07/2024 11:30:00,0.784
11/07/2024 11:45:00,0.783
11/07/2024 12:00:00,0.783
11/07/2024 12:15:00,0.783
11/07/2024 12:30:00,0.783
11/07/2024 12:45:00,0.783
11/07/2024 13:00:00,0.783
11/07/2024 13:15:00,0.783
11/07/2024 13:30:00,0.783
11/07/2024 13:45:00,0.781
11/07/2024 14:00:00,0.781
11/07/2024 14:15:00,0.781
11/07/2024 14:30:00,0.781
11/07/2024 14:45:00,0.781
11/07/2024 15:00:00,0.781
11/07/2024 15:15:00,0.781
11/07/2024 15:30:00,0.78
11/07/2024 15:45:00,0.78
11/07/2024 16:00:00,0.78
11/07/2024 16:15:00,0.78
11/07/2024 16:30:00,0.78
11/07/2024 16:45:00,0.78
11/07/2024 17:00:00,0.78
11/07/2024 17:15:00,0.779
11/07/2024 17:30:00,0.78
11/07/2024 17:45:00,0.779
11/07/2024 18:00:00,0.779
11/07/2024 18:15:00,0.779
11/07/2024 18:30:00,0.778
11/07/2024 18:45:00,0.779
11/07/2024 19:00:00,0.779
11/07/2024 19:15:00,0.778
11/07/2024 19:30:00,0.778
11/07/2024 19:45:00,0.777
11/07/2024 20:00:00,0.777
11/07/2024 20:15:00,0.776
11/07/2024 20:30:00,0.774
11/07/2024 20:45:00,0.773
11/07/2024 21:00:00,0.773
11/07/2024 21:15:00,0.773
11/07/2024 21:30:00,0.771
11/07/2024 21:45:00,0.77
11/07/2024 22:00:00,0.77
11/07/2024 22:15:00,0.769
11/07/2024 22:30:00,0.767
11/07/2024 22:45:00,0.766
11/07/2024 23:00:00,0.765
11/07/2024 23:15:00,0.763
11/07/2024 23:30:00,0.761
11/07/2024 23:45:00,0.76
12/07/2024 00:00:00,0.759
12/07/2024 00:15:00,0.756
12/07/2024 00:30:00,0.754
12/07/2024 00:45:00,0.751
12/07/2024 01:00:00,0.75
12/07/2024 01:15:00,0.748
12/07/2024 01:30:00,0.746
12/07/2024 01:45:00,0.744
12/07/2024 02:00:00,0.741
12/07/2024 02:15:00,0.739
12/07/2024 02:30:00,0.738
12/07/2024 02:45:00,0.736
12/07/2024 03:00:00,0.734
12/07/2024 03:15:00,0.731
12/07/2024 03:30:00,0.729
12/07/2024 03:45:00,0.727
12/07/2024 04:00:00,0.727
12/07/2024 04:15:00,0.726
12/07/2024 04:30:00,0.724
12/07/2024 04:45:00,0.723
12/07/2024 05:00:00,0.72
12/07/2024 05:15:00,0.718
12/07/2024 05:30:00,0.717
12/07/2024 05:45:00,0.716
12/07/2024 06:00:00,0.715
12/07/2024 06:15:00,0.713
12/07/2024 06:30:00,0.712
12/07/2024 06:45:00,0.709
12/07/2024 07:00:00,0.708
12/07/2024 07:15:00,0.707
12/07/2024 07:30:00,0.705
12/07/2024 07:45:00,0.705
12/07/2024 08:00:00,0.703
12/07/2024 08:15:00,0.703
12/07/2024 08:30:00,0.702
12/07/2024 08:45:00,0.7
12/07/2024 09:00:00,0.697
12/07/2024 09:15:00,0.697
12/07/2024 09:30:00,0.696
12/07/2024 09:45:00,0.695
12/07/2024 10:00:00,0.694
12/07/2024 10:15:00,0.694
12/07/2024 10:30:00,0.693
12/07/2024 10:45:00,0.692
12/07/2024 11:00:00,0.692
12/07/2024 11:15:00,0.693
12/07/2024 11:30:00,0.692
12/07/2024 11:45:00,0.693
12/07/2024 12:00:00,0.692
12/07/2024 12:15:00,0.693
12/07/2024 12:30:00,0.693
12/07/2024 12:45:00,0.693
12/07/2024 13:00:00,0.693
12/07/2024 13:15:00,0.692
12/07/2024 13:30:00,0.692
12/07/2024 13:45:00,0.692
12/07/2024 14:00:00,0.692
12/07/2024 14:15:00,0.692
12/07/2024 14:30:00,0.69
12/07/2024 14:45:00,0.69
12/07/2024 15:00:00,0.69
12/07/2024 15:15:00,0.69
12/07/2024 15:30:00,0.687
12/07/2024 15:45:00,0.687
12/07/2024 16:00:00,0.686
12/07/2024 16:15:00,0.687
12/07/2024 16:30:00,0.686
12/07/2024 16:45:00,0.685
12/07/2024 17:00:00,0.685
12/07/2024 17:15:00,0.685
12/07/2024 17:30:00,0.684
12/07/2024 17:45:00,0.683
12/07/2024 18:00:00,0.683
12/07/2024 18:15:00,0.683
12/07/2024 18:30:00,0.683
12/07/2024 18:45:00,0.682
12/07/2024 19:00:00,0.682
12/07/2024 19:15:00,0.682
12/07/2024 19:30:00,0.682
12/07/2024 19:45:00,0.681
12/07/2024 20:00:00,0.681
12/07/2024 20:15:00,0.68
12/07/2024 20:30:00,0.68
12/07/2024 20:45:00,0.68
12/07/2024 21:00:00,0.679
12/07/2024 21:15:00,0.679
12/07/2024 21:30:00,0.678
12/07/2024 21:45:00,0.676
12/07/2024 22:00:00,0.676
12/07/2024 22:15:00,0.676
12/07/2024 22:30:00,0.675
12/07/2024 22:45:00,0.675
12/07/2024 23:00:00,0.675
12/07/2024 23:15:00,0.675
12/07/2024 23:30:00,0.676
12/07/2024 23:45:00,0.676
13/07/2024 00:00:00,0.676
13/07/2024 00:15:00,0.676
13/07/2024 00:30:00,0.676
13/07/2024 00:45:00,0.678
13/07/2024 01:00:00,0.676
13/07/2024 01:15:00,0.678
13/07/2024 01:30:00,0.678
13/07/2024 01:45:00,0.678
13/07/2024 02:00:00,0.678
13/07/2024 02:15:00,0.679
13/07/2024 02:30:00,0.678
13/07/2024 02:45:00,0.676
13/07/2024 03:00:00,0.676
13/07/2024 03:15:00,0.678
13/07/2024 03:30:00,0.676
13/07/2024 03:45:00,0.676
13/07/2024 04:00:00,0.676
13/07/2024 04:15:00,0.675
13/07/2024 04:30:00,0.674
13/07/2024 04:45:00,0.674
13/07/2024 05:00:00,0.674
13/07/2024 05:15:00,0.674
13/07/2024 05:30:00,0.674
13/07/2024 05:45:00,0.673
13/07/2024 06:00:00,0.674
13/07/2024 06:15:00,0.673
13/07/2024 06:30:00,0.673
13/07/2024 06:45:00,0.673
13/07/2024 07:00:00,0.672
13/07/2024 07:15:00,0.672
13/07/2024 07:30:00,0.672
13/07/2024 07:45:00,0.672
13/07/2024 08:00:00,0.671
13/07/2024 08:15:00,0.67
13/07/2024 08:30:00,0.67
13/07/2024 08:45:00,0.67
13/07/2024 09:00:00,0.669
13/07/2024 09:15:00,0.669
13/07/2024 09:30:00,0.668
13/07/2024 09:45:00,0.669
13/07/2024 10:00:00,0.668
13/07/2024 10:15:00,0.667
13/07/2024 10:30:00,0.667
13/07/2024 10:45:00,0.667
13/07/2024 11:00:00,0.667
13/07/2024 11:15:00,0.667
13/07/2024 11:30:00,0.667
13/07/2024 11:45:00,0.667
13/07/2024 12:00:00,0.665
13/07/2024 12:15:00,0.665
13/07/2024 12:30:00,0.667
13/07/2024 12:45:00,0.665
13/07/2024 13:00:00,0.664
13/07/2024 13:15:00,0.665
13/07/2024 13:30:00,0.665
13/07/2024 13:45:00,0.664
13/07/2024 14:00:00,0.665
13/07/2024 14:15:00,0.664
13/07/2024 14:30:00,0.664
13/07/2024 14:45:00,0.664
13/07/2024 15:00:00,0.665
13/07/2024 15:15:00,0.665
13/07/2024 15:30:00,0.664
13/07/2024 15:45:00,0.667
13/07/2024 16:00:00,0.665
13/07/2024 16:15:00,0.665
13/07/2024 16:30:00,0.665
13/07/2024 16:45:00,0.664
13/07/2024 17:00:00,0.664
13/07/2024 17:15:00,0.664
13/07/2024 17:30:00,0.664
13/07/2024 17:45:00,0.664
13/07/2024 18:00:00,0.663
13/07/2024 18:15:00,0.663
13/07/2024 18:30:00,0.663
13/07/2024 18:45:00,0.662
13/07/2024 19:00:00,0.663
13/07/2024 19:15:00,0.662
13/07/2024 19:30:00,0.662
13/07/2024 19:45:00,0.662
13/07/2024 20:00:00,0.661
13/07/2024 20:15:00,0.661
13/07/2024 20:30:00,0.66
13/07/2024 20:45:00,0.66
13/07/2024 21:00:00,0.66
13/07/2024 21:15:00,0.659
13/07/2024 21:30:00,0.659
13/07/2024 21:45:00,0.659
13/07/2024 22:00:00,0.658
13/07/2024 22:15:00,0.658
13/07/2024 22:30:00,0.658
13/07/2024 22:45:00,0.658
13/07/2024 23:00:00,0.658
13/07/2024 23:15:00,0.658
13/07/2024 23:30:00,0.658
13/07/2024 23:45:00,0.658
14/07/2024 00:00:00,0.658
14/07/2024 00:15:00,0.659
14/07/2024 00:30:00,0.659
14/07/2024 00:45:00,0.66
14/07/2024 01:00:00,0.66
14/07/2024 01:15:00,0.66
14/07/2024 01:30:00,0.66
14/07/2024 01:45:00,0.66
14/07/2024 02:00:00,0.66
14/07/2024 02:15:00,0.66
14/07/2024 02:30:00,0.66
14/07/2024 02:45:00,0.66
14/07/2024 03:00:00,0.661
14/07/2024 03:15:00,0.661
14/07/2024 03:30:00,0.66
14/07/2024 03:45:00,0.66
14/07/2024 04:00:00,0.66
14/07/2024 04:15:00,0.659
14/07/2024 04:30:00,0.659
14/07/2024 04:45:00,0.659
14/07/2024 05:00:00,0.659
14/07/2024 05:15:00,0.658
14/07/2024 05:30:00,0.658
14/07/2024 05:45:00,0.657
14/07/2024 06:00:00,0.658
14/07/2024 06:15:00,0.657
14/07/2024 06:30:00,0.657
14/07/2024 06:45:00,0.655
14/07/2024 07:00:00,0.655
14/07/2024 07:15:00,0.653
14/07/2024 07:30:00,0.654
14/07/2024 07:45:00,0.653
14/07/2024 08:00:00,0.653
14/07/2024 08:15:00,0.652
14/07/2024 08:30:00,0.653
14/07/2024 08:45:00,0.652
14/07/2024 09:00:00,0.651
14/07/2024 09:15:00,0.651
14/07/2024 09:30:00,0.651
14/07/2024 09:45:00,0.651
14/07/2024 10:00:00,0.651
14/07/2024 10:15:00,0.65
14/07/2024 10:30:00,0.65
14/07/2024 10:45:00,0.649
14/07/2024 11:00:00,0.649
14/07/2024 11:15:00,0.648
14/07/2024 11:30:00,0.649
14/07/2024 11:45:00,0.649
14/07/2024 12:00:00,0.648
14/07/2024 12:15:00,0.648
14/07/2024 12:30:00,0.648
14/07/2024 12:45:00,0.648
14/07/2024 13:00:00,0.649
14/07/2024 13:15:00,0.648
14/07/2024 13:30:00,0.649
14/07/2024 13:45:00,0.649
14/07/2024 14:00:00,0.649
14/07/2024 14:15:00,0.649
14/07/2024 14:30:00,0.65
14/07/2024 14:45:00,0.651
14/07/2024 15:00:00,0.651
14/07/2024 15:15:00,0.651
14/07/2024 15:30:00,0.651
14/07/2024 15:45:00,0.651
14/07/2024 16:00:00,0.651
14/07/2024 16:15:00,0.651
14/07/2024 16:30:00,0.651
14/07/2024 16:45:00,0.651
14/07/2024 17:00:00,0.651
14/07/2024 17:15:00,0.651
14/07/2024 17:30:00,0.651
14/07/2024 17:45:00,0.651
14/07/2024 18:00:00,0.651
14/07/2024 18:15:00,0.649
14/07/2024 18:30:00,0.649
14/07/2024 18:45:00,0.648
14/07/2024 19:00:00,0.647
14/07/2024 19:15:00,0.647
14/07/2024 19:30:00,0.646
14/07/2024 19:45:00,0.646
14/07/2024 20:00:00,0.646
14/07/2024 20:15:00,0.647
14/07/2024 20:30:00,0.647
14/07/2024 20:45:00,0.647
14/07/2024 21:00:00,0.647
14/07/2024 21:15:00,0.648
14/07/2024 21:30:00,0.648
14/07/2024 21:45:00,0.647
14/07/2024 22:00:00,0.647
14/07/2024 22:15:00,0.648
14/07/2024 22:30:00,0.648
14/07/2024 22:45:00,0.648
14/07/2024 23:00:00,0.648
14/07/2024 23:15:00,0.648
14/07/2024 23:30:00,0.649
14/07/2024 23:45:00,0.649
15/07/2024 00:00:00,0.649
15/07/2024 00:15:00,0.65
15/07/2024 00:30:00,0.65
15/07/2024 00:45:00,0.651
15/07/2024 01:00:00,0.651
15/07/2024 01:15:00,0.65
15/07/2024 01:30:00,0.65
15/07/2024 01:45:00,0.65
15/07/2024 02:00:00,0.65
15/07/2024 02:15:00,0.65
15/07/2024 02:30:00,0.651
15/07/2024 02:45:00,0.65
15/07/2024 03:00:00,0.65
15/07/2024 03:15:00,0.65
15/07/2024 03:30:00,0.65
15/07/2024 03:45:00,0.65
15/07/2024 04:00:00,0.649
15/07/2024 04:15:00,0.649
15/07/2024 04:30:00,0.649
15/07/2024 04:45:00,0.648
15/07/2024 05:00:00,0.648
15/07/2024 05:15:00,0.647
15/07/2024 05:30:00,0.648
15/07/2024 05:45:00,0.647
15/07/2024 06:00:00,0.647
15/07/2024 06:15:00,0.647
15/07/2024 06:30:00,0.647
15/07/2024 06:45:00,0.647
15/07/2024 07:00:00,0.647
15/07/2024 07:15:00,0.647
15/07/2024 07:30:00,0.647
15/07/2024 07:45:00,0.647
15/07/2024 08:00:00,0.646
15/07/2024 08:15:00,0.646
15/07/2024 08:30:00,0.646
15/07/2024 08:45:00,0.647
15/07/2024 09:00:00,0.646
15/07/2024 09:15:00,0.646
15/07/2024 09:30:00,0.646
15/07/2024 09:45:00,0.643
15/07/2024 10:00:00,0.643
15/07/2024 10:15:00,0.643
15/07/2024 10:30:00,0.642
15/07/2024 10:45:00,0.641
15/07/2024 11:00:00,0.641
15/07/2024 11:15:00,0.64
15/07/2024 11:30:00,0.641
15/07/2024 11:45:00,0.641
15/07/2024 12:00:00,0.641
15/07/2024 12:15:00,0.642
15/07/2024 12:30:00,0.642
15/07/2024 12:45:00,0.641
15/07/2024 13:00:00,0.641
15/07/2024 13:15:00,0.641
15/07/2024 13:30:00,0.641
15/07/2024 13:45:00,0.642
15/07/2024 14:00:00,0.643
15/07/2024 14:15:00,0.643
15/07/2024 14:30:00,0.643
15/07/2024 14:45:00,0.643
15/07/2024 15:00:00,0.643
15/07/2024 15:15:00,0.647
15/07/2024 15:30:00,0.646
15/07/2024 15:45:00,0.657
15/07/2024 16:00:00,0.663
15/07/2024 16:15:00,0.667
15/07/2024 16:30:00,0.673
15/07/2024 16:45:00,0.672
15/07/2024 17:00:00,0.67
15/07/2024 17:15:00,0.672
15/07/2024 17:30:00,0.667
15/07/2024 17:45:00,0.664
15/07/2024 18:00:00,0.663
15/07/2024 18:15:00,0.662
15/07/2024 18:30:00,0.662
15/07/2024 18:45:00,0.662
15/07/2024 19:00:00,0.662
15/07/2024 19:15:00,0.66
15/07/2024 19:30:00,0.658
15/07/2024 19:45:00,0.657
15/07/2024 20:00:00,0.653
15/07/2024 20:15:00,0.652
15/07/2024 20:30:00,0.651
15/07/2024 20:45:00,0.651
15/07/2024 21:00:00,0.649
15/07/2024 21:15:00,0.649
15/07/2024 21:30:00,0.648
15/07/2024 21:45:00,0.647
15/07/2024 22:00:00,0.647
15/07/2024 22:15:00,0.646
15/07/2024 22:30:00,0.646
15/07/2024 22:45:00,0.646
15/07/2024 23:00:00,0.647
15/07/2024 23:15:00,0.649
15/07/2024 23:30:00,0.65
15/07/2024 23:45:00,0.651
16/07/2024 00:00:00,0.653
16/07/2024 00:15:00,0.654
16/07/2024 00:30:00,0.655
16/07/2024 00:45:00,0.658
16/07/2024 01:00:00,0.659
16/07/2024 01:15:00,0.66
16/07/2024 01:30:00,0.662
16/07/2024 01:45:00,0.663
16/07/2024 02:00:00,0.665
16/07/2024 02:15:00,0.67
16/07/2024 02:30:00,0.672
16/07/2024 02:45:00,0.676
16/07/2024 03:00:00,0.68
16/07/2024 03:15:00,0.683
16/07/2024 03:30:00,0.684
16/07/2024 03:45:00,0.685
16/07/2024 04:00:00,0.686
16/07/2024 04:15:00,0.686
16/07/2024 04:30:00,0.686
16/07/2024 04:45:00,0.685
16/07/2024 05:00:00,0.685
16/07/2024 05:15:00,0.683
16/07/2024 05:30:00,0.683
16/07/2024 05:45:00,0.682
16/07/2024 06:00:00,0.681
16/07/2024 06:15:00,0.68
16/07/2024 06:30:00,0.679
